Hourly Data Report for May 26, 2012

All times are specified in Local Standard Time (LST). Add 1 hour to adjust for Daylight Saving Time where and when it is observed.

HAMILTON A
ONTARIO

43°10'25.000" N
79°56'06.000" W
237.70 m
6153193
71263
YHM

Download Data

Hourly Data (May 2012)
Hourly Data Report for May 26, 2012
Temp Definition
°C
Dew Point Temp Definition
°C
Rel Hum Definition
%
Wind Dir Definition
10's deg

Wind Spd Definition
km/h
Visibility Definition
km
Stn Press Definition
kPa
Hmdx Definition


Wind Chill Definition


Weather Definition


TIME
00:00 Legend Double Dagger 18.6 10.5 59   0 10.0 99.09     LegendNANA
01:00 Legend Double Dagger 17.9 11.5 66   0 10.0 99.14     Cloudy
02:00 Legend Double Dagger 16.3 11.1 71   0 10.0 99.16     LegendNANA
03:00 Legend Double Dagger 16.7 11.7 72 35 4 10.0 99.19     LegendNANA
04:00 Legend Double Dagger 16.3 11.3 72 4 13 10.0 99.29     Mostly Cloudy
05:00 Legend Double Dagger 17.0 9.8 62 4 13 10.0 99.35     LegendNANA
06:00 Legend Double Dagger 17.3 9.8 61 4 10 10.0 99.40     LegendNANA
07:00 Legend Double Dagger 19.5 9.5 52 4 15 10.0 99.44     Mostly Cloudy
08:00 Legend Double Dagger 20.5 10.7 53 3 9 10.0 99.46     LegendNANA
09:00 Legend Double Dagger 21.8 10.1 47 6 7 10.0 99.47     LegendNANA
10:00 Legend Double Dagger 23.1 7.4 36 8 8 10.0 99.47     Mostly Cloudy
11:00 Legend Double Dagger 23.3 8.8 39 0 9 10.0 99.48     LegendNANA
12:00 Legend Double Dagger 24.5 10.9 42 27 5 10.0 99.49 26   LegendNANA
13:00 Legend Double Dagger 24.5 9.8 39 31 15 10.0 99.43 26   Mostly Cloudy
14:00 Legend Double Dagger 25.0 9.1 36 0 7 10.0 99.38 26   LegendNANA
15:00 Legend Double Dagger 25.4 10.3 38 32 9 10.0 99.33 27   LegendNANA
16:00 Legend Double Dagger 24.1 10.2 41 2 10 10.0 99.23 25   Mostly Cloudy
17:00 Legend Double Dagger 23.8 11.3 45 1 8 10.0 99.24 26   LegendNANA
18:00 Legend Double Dagger 23.7 11.6 46 35 8 10.0 99.27 26   LegendNANA
19:00 Legend Double Dagger 21.9 11.5 51 6 16 10.0 99.34     Mostly Cloudy
20:00 Legend Double Dagger 21.6 10.0 47 8 5 10.0 99.44     LegendNANA
21:00 Legend Double Dagger 19.7 9.4 51 1 6 10.0 99.44     LegendNANA
22:00 Legend Double Dagger 18.0 7.5 50 1 12 10.0 99.41     Mainly Clear
23:00 Legend Double Dagger 16.9 6.5 50 4 8 10.0 99.39     LegendNANA

Notes on Data Quality.

Legend

  • E = Estimated
  • M = Missing
  • NA = Not Available
  • ‡ = Partner data that is not subject to review by the National Climate Archives
Date modified: